| time (UTC) | temp F | wind direction | speed knots | gust knots | rain 1hr in | rain 24hr in | rain mn in | humidity % | barometer mb |
| 20260506080722 | 47 | 331 | 2.6 | 8.7 | 0.00 | 0.32 | 0.00 | 88 | 1012.3 |
| 20260506073210 | 47 | 104 | 1.7 | 4.3 | 0.00 | 0.46 | 0.00 | 90 | 1012.1 |
| 20260506070722 | 47 | 0 | 2.6 | 10.4 | 0.00 | 0.46 | 0.00 | 90 | 1012.2 |
| 20260506061717 | 47 | 332 | 3.5 | 11.3 | 0.00 | 0.53 | 0.00 | 90 | 1012.3 |
| 20260506060717 | 47 | 63 | 2.6 | 11.3 | 0.00 | 0.53 | 0.00 | 91 | 1012.5 |
| 20260506050708 | 47 | 342 | 2.6 | 8.7 | 0.00 | 0.53 | 0.00 | 93 | 1012.2 |
| 20260506044710 | 47 | 33 | 2.6 | 8.7 | 0.00 | 0.53 | 0.53 | 93 | 1012.1 |
| 20260506044201 | 47 | 51 | 3.5 | 8.7 | 0.00 | 0.53 | 0.53 | 93 | 1011.9 |
| 20260506042702 | 47 | 14 | 2.6 | 7.0 | 0.00 | 0.53 | 0.53 | 93 | 1012.0 |
| 20260506040703 | 48 | 348 | 2.6 | 7.8 | 0.00 | 0.53 | 0.53 | 92 | 1011.7 |
| 20260506035703 | 48 | 34 | 1.7 | 7.8 | 0.00 | 0.53 | 0.53 | 92 | 1011.5 |
| 20260506034702 | 48 | 49 | 1.7 | 5.2 | 0.00 | 0.53 | 0.53 | 92 | 1011.3 |
| 20260506033702 | 48 | 59 | 2.6 | 9.6 | 0.00 | 0.53 | 0.53 | 92 | 1011.4 |
| 20260506033150 | 48 | 33 | 2.6 | 9.6 | 0.00 | 0.53 | 0.53 | 92 | 1011.2 |
| 20260506031704 | 48 | 40 | 3.5 | 8.7 | 0.00 | 0.53 | 0.53 | 93 | 1011.0 |
| 20260506030658 | 48 | 31 | 3.5 | 10.4 | 0.00 | 0.53 | 0.53 | 93 | 1010.7 |
| 20260506025658 | 48 | 56 | 2.6 | 8.7 | 0.00 | 0.53 | 0.53 | 93 | 1010.6 |
| 20260506024654 | 48 | 15 | 4.3 | 12.2 | 0.00 | 0.53 | 0.53 | 93 | 1010.3 |
| 20260506023653 | 48 | 40 | 3.5 | 8.7 | 0.00 | 0.53 | 0.53 | 94 | 1010.0 |
| 20260506023133 | 48 | 33 | 1.7 | 5.2 | 0.00 | 0.53 | 0.53 | 94 | 1009.9 |
| 20260506020655 | 48 | 340 | 3.5 | 7.8 | 0.00 | 0.53 | 0.53 | 93 | 1009.7 |
| 20260506015653 | 48 | 327 | 1.7 | 7.0 | 0.00 | 0.53 | 0.53 | 93 | 1009.6 |
| 20260506014654 | 48 | 55 | 2.6 | 7.0 | 0.02 | 0.53 | 0.53 | 93 | 1009.5 |
| 20260506013656 | 48 | 26 | 3.5 | 7.8 | 0.02 | 0.53 | 0.53 | 93 | 1009.9 |
| 20260506012654 | 48 | 294 | 2.6 | 7.8 | 0.02 | 0.53 | 0.53 | 93 | 1009.7 |
| 20260506011653 | 48 | 327 | 3.5 | 8.7 | 0.02 | 0.53 | 0.53 | 93 | 1009.4 |
| 20260506010655 | 48 | 340 | 2.6 | 8.7 | 0.02 | 0.53 | 0.53 | 92 | 1009.5 |
| 20260506005655 | 49 | 26 | 3.5 | 10.4 | 0.02 | 0.53 | 0.53 | 92 | 1009.4 |
| 20260506004649 | 49 | 37 | 3.5 | 11.3 | 0.00 | 0.51 | 0.51 | 92 | 1009.1 |
| 20260506003648 | 49 | 345 | 3.5 | 9.6 | 0.00 | 0.51 | 0.51 | 93 | 1009.2 |
| 20260506002647 | 49 | 9 | 4.3 | 9.6 | 0.00 | 0.51 | 0.51 | 93 | 1008.8 |
| 20260506001646 | 49 | 342 | 4.3 | 11.3 | 0.00 | 0.51 | 0.51 | 93 | 1008.9 |
| 20260506000645 | 49 | 309 | 5.2 | 11.3 | 0.00 | 0.51 | 0.51 | 93 | 1008.6 |
| 20260506000125 | 49 | 309 | 4.3 | 10.4 | 0.00 | 0.51 | 0.51 | 93 | 1008.5 |
| 20260505234644 | 50 | 346 | 6.1 | 13.0 | 0.00 | 0.51 | 0.51 | 92 | 1008.3 |
| 20260505233649 | 50 | 349 | 3.5 | 14.8 | 0.00 | 0.51 | 0.51 | 92 | 1007.9 |
| 20260505233124 | 51 | 355 | 7.0 | 14.8 | 0.00 | 0.51 | 0.51 | 92 | 1007.9 |
| 20260505231640 | 51 | 345 | 5.2 | 12.2 | 0.00 | 0.51 | 0.51 | 91 | 1008.3 |
| 20260505230639 | 52 | 15 | 5.2 | 11.3 | 0.00 | 0.51 | 0.51 | 91 | 1008.1 |
| 20260505225640 | 53 | 338 | 5.2 | 10.4 | 0.00 | 0.51 | 0.51 | 91 | 1007.7 |
| 20260505224639 | 53 | 26 | 3.5 | 11.3 | 0.00 | 0.51 | 0.51 | 90 | 1007.1 |
| 20260505223638 | 53 | 355 | 3.5 | 9.6 | 0.00 | 0.51 | 0.51 | 90 | 1007.4 |
| 20260505222637 | 53 | 355 | 5.2 | 10.4 | 0.00 | 0.51 | 0.51 | 90 | 1007.7 |
| 20260505221633 | 54 | 24 | 4.3 | 8.7 | 0.00 | 0.51 | 0.51 | 90 | 1007.3 |
| 20260505220633 | 54 | 13 | 5.2 | 9.6 | 0.00 | 0.51 | 0.51 | 90 | 1006.8 |
| 20260505215635 | 55 | 15 | 4.3 | 12.2 | 0.00 | 0.51 | 0.51 | 90 | 1006.8 |
| 20260505214635 | 55 | 320 | 3.5 | 8.7 | 0.00 | 0.51 | 0.51 | 91 | 1006.6 |
| 20260505213633 | 55 | 338 | 5.2 | 10.4 | 0.00 | 0.51 | 0.51 | 90 | 1006.8 |
| 20260505212631 | 56 | 340 | 4.3 | 8.7 | 0.00 | 0.51 | 0.51 | 91 | 1007.3 |
| 20260505212112 | 56 | 340 | 5.2 | 13.9 | 0.00 | 0.51 | 0.51 | 90 | 1006.8 |
| 20260505210629 | 56 | 335 | 4.3 | 9.6 | 0.00 | 0.51 | 0.51 | 90 | 1006.5 |
| 20260505205631 | 57 | 19 | 3.5 | 10.4 | 0.00 | 0.51 | 0.51 | 91 | 1006.5 |
| 20260505204628 | 57 | 15 | 4.3 | 11.3 | 0.00 | 0.51 | 0.51 | 91 | 1006.6 |
| 20260505203626 | 57 | 330 | 2.6 | 8.7 | 0.00 | 0.51 | 0.51 | 91 | 1006.5 |
| 20260505203103 | 57 | 0 | 2.6 | 8.7 | 0.00 | 0.51 | 0.51 | 91 | 1006.5 |
| 20260505201633 | 58 | 342 | 3.5 | 8.7 | 0.00 | 0.51 | 0.51 | 90 | 1006.6 |
| 20260505200630 | 58 | 5 | 3.5 | 9.6 | 0.00 | 0.51 | 0.51 | 90 | 1006.6 |
| 20260505195627 | 58 | 11 | 4.3 | 9.6 | 0.00 | 0.51 | 0.51 | 90 | 1006.7 |
| 20260505194625 | 59 | 342 | 6.1 | 10.4 | 0.00 | 0.51 | 0.51 | 90 | 1006.9 |
| 20260505193623 | 59 | 39 | 6.1 | 11.3 | 0.00 | 0.51 | 0.51 | 90 | 1006.9 |
| 20260505192625 | 60 | 52 | 4.3 | 13.9 | 0.00 | 0.51 | 0.51 | 90 | 1006.0 |
| 20260505191621 | 59 | 347 | 8.7 | 13.9 | 0.00 | 0.51 | 0.51 | 90 | 1005.3 |
| 20260505190619 | 60 | 323 | 10.4 | 17.4 | 0.00 | 0.51 | 0.51 | 89 | 1005.9 |
| 20260505185619 | 61 | 348 | 11.3 | 19.1 | 0.00 | 0.51 | 0.51 | 88 | 1006.0 |
| 20260505184619 | 65 | 0 | 7.8 | 15.6 | 0.00 | 0.51 | 0.51 | 89 | 1005.6 |
| 20260505183619 | 65 | 355 | 6.1 | 11.3 | 0.00 | 0.51 | 0.51 | 88 | 1005.4 |
| 20260505182619 | 67 | 327 | 3.5 | 7.8 | 0.00 | 0.51 | 0.51 | 84 | 1005.6 |
| 20260505181620 | 71 | 192 | 4.3 | 10.4 | 0.00 | 0.51 | 0.51 | 83 | 1005.7 |
| 20260505180617 | 71 | 175 | 3.5 | 6.1 | 0.00 | 0.51 | 0.51 | 82 | 1005.4 |
| 20260505175617 | 71 | 240 | 4.3 | 11.3 | 0.00 | 0.51 | 0.51 | 82 | 1005.2 |
| 20260505175058 | 70 | 169 | 6.1 | 10.4 | 0.00 | 0.51 | 0.51 | 82 | 1005.1 |
| 20260505173619 | 70 | 191 | 7.0 | 10.4 | 0.00 | 0.51 | 0.51 | 83 | 1005.5 |
| 20260505172619 | 70 | 193 | 6.1 | 10.4 | 0.00 | 0.51 | 0.51 | 83 | 1005.4 |
| 20260505171619 | 70 | 203 | 6.1 | 10.4 | 0.00 | 0.51 | 0.51 | 83 | 1005.5 |
| 20260505171106 | 70 | 209 | 5.2 | 9.6 | 0.00 | 0.51 | 0.51 | 84 | 1005.4 |
| 20260505165617 | 69 | 188 | 6.1 | 11.3 | 0.00 | 0.51 | 0.51 | 84 | 1005.5 |
| 20260505164617 | 69 | 167 | 2.6 | 7.0 | 0.00 | 0.51 | 0.51 | 86 | 1005.6 |
| 20260505163618 | 69 | 144 | 1.7 | 4.3 | 0.00 | 0.51 | 0.51 | 85 | 1005.6 |
| 20260505163057 | 69 | 165 | 2.6 | 5.2 | 0.00 | 0.51 | 0.51 | 84 | 1005.5 |
| 20260505161617 | 69 | 122 | 2.6 | 6.1 | 0.00 | 0.51 | 0.51 | 84 | 1005.3 |
| 20260505161102 | 69 | 161 | 5.2 | 9.6 | 0.00 | 0.51 | 0.51 | 84 | 1005.2 |
| 20260505152615 | 68 | 179 | 5.2 | 13.0 | 0.00 | 0.51 | 0.51 | 86 | 1005.0 |
| 20260505151616 | 67 | 156 | 2.6 | 7.0 | 0.00 | 0.51 | 0.51 | 88 | 1005.2 |
| 20260505151058 | 67 | 126 | 3.5 | 6.1 | 0.00 | 0.51 | 0.51 | 88 | 1005.1 |
| 20260505140612 | 63 | 147 | 2.6 | 6.1 | 0.00 | 0.51 | 0.51 | 91 | 1005.7 |
| 20260505124603 | 61 | 150 | 4.3 | 7.8 | 0.00 | 0.51 | 0.51 | 93 | 1005.6 |
| 20260505123601 | 61 | 141 | 4.3 | 7.8 | 0.00 | 0.51 | 0.51 | 93 | 1005.6 |
| 20260505122602 | 60 | 136 | 4.3 | 7.8 | 0.00 | 0.51 | 0.51 | 93 | 1005.5 |
| 20260505121602 | 60 | 150 | 4.3 | 7.8 | 0.00 | 0.51 | 0.51 | 93 | 1005.6 |
| 20260505121103 | 60 | 134 | 4.3 | 7.8 | 0.00 | 0.51 | 0.51 | 94 | 1005.7 |
| 20260505120050 | 60 | 124 | 3.5 | 6.1 | 0.00 | 0.51 | 0.51 | 94 | 1005.5 |
| 20260505114602 | 60 | 138 | 3.5 | 6.1 | 0.00 | 0.51 | 0.51 | 94 | 1005.4 |
| 20260505113602 | 60 | 139 | 2.6 | 5.2 | 0.00 | 0.51 | 0.51 | 94 | 1005.7 |
| 20260505111604 | 60 | 128 | 1.7 | 6.1 | 0.01 | 0.51 | 0.51 | 94 | 1005.6 |
| 20260505111047 | 60 | 125 | 2.6 | 8.7 | 0.01 | 0.51 | 0.51 | 94 | 1005.5 |
| 20260505101603 | 60 | 105 | 0.9 | 4.3 | 0.01 | 0.50 | 0.50 | 94 | 1005.8 |
| 20260505100603 | 60 | 110 | 0.0 | 2.6 | 0.01 | 0.50 | 0.50 | 94 | 1006.0 |
| 20260505095610 | 60 | 61 | 0.9 | 5.2 | 0.02 | 0.50 | 0.50 | 94 | 1006.0 |
| 20260505094605 | 60 | 75 | 0.9 | 4.3 | 0.02 | 0.50 | 0.50 | 94 | 1006.0 |
| 20260505093600 | 60 | 44 | 0.9 | 3.5 | 0.02 | 0.50 | 0.50 | 94 | 1006.1 |
| 20260505091600 | 60 | 346 | 1.7 | 3.5 | 0.07 | 0.49 | 0.49 | 94 | 1006.1 |
| 20260505090602 | 60 | 342 | 0.0 | 1.7 | 0.28 | 0.49 | 0.49 | 93 | 1006.1 |
| 20260505085601 | 60 | 5 | 0.9 | 2.6 | 0.33 | 0.48 | 0.48 | 93 | 1006.1 |
| 20260505083601 | 61 | 5 | 0.9 | 2.6 | 0.41 | 0.48 | 0.48 | 92 | 1006.0 |
| 20260505082558 | 61 | 15 | 2.6 | 5.2 | 0.40 | 0.47 | 0.47 | 92 | 1006.4 |
| 20260505081600 | 61 | 338 | 2.6 | 11.3 | 0.35 | 0.42 | 0.40 | 91 | 1005.8 |